Time,TemperatureF,DewpointF,PressureIn,WindDirection,WindDirectionDegrees,WindSpeedMPH,WindSpeedGustMPH,Humidity,HourlyPrecipIn,Conditions,Clouds,dailyrainin,SoftwareType,DateUTC
2013-03-24 00:01:00,39.0,32.0,30.29,ENE,77,0.0,1.0,76,0.00,,,0.00,,2013-03-24 07:01:00,
2013-03-24 00:11:00,39.0,32.0,30.29,ENE,77,0.0,1.0,76,0.00,,,0.00,,2013-03-24 07:11:00,
2013-03-24 00:22:00,38.0,32.0,30.28,ENE,77,1.0,2.0,79,0.00,,,0.00,,2013-03-24 07:22:00,
2013-03-24 00:31:00,37.0,31.0,30.28,ENE,77,1.0,2.0,80,0.00,,,0.00,,2013-03-24 07:31:00,
2013-03-24 00:42:00,37.0,31.0,30.28,ENE,77,1.0,2.0,80,0.00,,,0.00,,2013-03-24 07:42:00,
2013-03-24 00:52:00,37.0,32.0,30.28,ENE,77,1.0,2.0,81,0.00,,,0.00,,2013-03-24 07:52:00,
2013-03-24 01:02:00,37.0,32.0,30.28,ENE,77,0.0,2.0,81,0.00,,,0.00,,2013-03-24 08:02:00,
2013-03-24 01:12:00,37.0,32.0,30.28,ENE,77,0.0,2.0,81,0.00,,,0.00,,2013-03-24 08:12:00,
2013-03-24 01:22:00,36.0,31.0,30.28,ENE,77,1.0,1.0,82,0.00,,,0.00,,2013-03-24 08:22:00,
2013-03-24 01:31:00,36.0,31.0,30.28,ENE,77,0.0,2.0,83,0.00,,,0.00,,2013-03-24 08:31:00,
2013-03-24 01:41:00,36.0,31.0,30.28,ENE,77,0.0,2.0,83,0.00,,,0.00,,2013-03-24 08:41:00,
2013-03-24 01:52:00,36.0,31.0,30.28,ENE,77,1.0,1.0,82,0.00,,,0.00,,2013-03-24 08:52:00,
2013-03-24 02:01:00,36.0,32.0,30.28,ENE,77,1.0,2.0,84,0.00,,,0.00,,2013-03-24 09:01:00,
2013-03-24 02:12:00,36.0,32.0,30.28,ENE,77,1.0,2.0,84,0.00,,,0.00,,2013-03-24 09:12:00,
2013-03-24 02:21:00,36.0,32.0,30.29,ENE,77,0.0,1.0,84,0.00,,,0.00,,2013-03-24 09:21:00,
2013-03-24 02:32:00,36.0,32.0,30.29,ENE,77,1.0,1.0,84,0.00,,,0.00,,2013-03-24 09:32:00,
2013-03-24 02:42:00,36.0,32.0,30.29,ENE,77,1.0,1.0,84,0.00,,,0.00,,2013-03-24 09:42:00,
2013-03-24 02:52:00,36.0,32.0,30.29,ENE,77,1.0,2.0,85,0.00,,,0.00,,2013-03-24 09:52:00,
2013-03-24 03:02:00,35.0,31.0,30.28,ENE,77,0.0,1.0,86,0.00,,,0.00,,2013-03-24 10:02:00,
2013-03-24 03:12:00,35.0,31.0,30.28,ENE,77,0.0,1.0,86,0.00,,,0.00,,2013-03-24 10:12:00,
2013-03-24 03:22:00,35.0,31.0,30.28,ENE,77,1.0,1.0,86,0.00,,,0.00,,2013-03-24 10:22:00,
2013-03-24 03:42:00,35.0,31.0,30.28,ENE,77,1.0,2.0,86,0.00,,,0.00,,2013-03-24 10:42:00,
2013-03-24 03:52:00,34.0,31.0,30.28,ENE,77,1.0,2.0,87,0.00,,,0.00,,2013-03-24 10:52:00,
2013-03-24 04:02:00,34.0,31.0,30.28,ENE,77,1.0,2.0,87,0.00,,,0.00,,2013-03-24 11:02:00,
2013-03-24 04:11:00,34.0,31.0,30.28,ENE,77,1.0,2.0,87,0.00,,,0.00,,2013-03-24 11:11:00,
2013-03-24 04:21:00,34.0,31.0,30.27,ENE,77,0.0,2.0,87,0.00,,,0.00,,2013-03-24 11:21:00,
2013-03-24 04:32:00,33.0,30.0,30.27,ENE,77,2.0,2.0,88,0.00,,,0.00,,2013-03-24 11:32:00,
2013-03-24 04:42:00,33.0,30.0,30.27,ENE,77,2.0,2.0,88,0.00,,,0.00,,2013-03-24 11:42:00,
2013-03-24 04:52:00,34.0,31.0,30.27,ENE,77,1.0,2.0,89,0.00,,,0.00,,2013-03-24 11:52:00,
2013-03-24 05:02:00,34.0,31.0,30.27,ENE,77,1.0,2.0,88,0.00,,,0.00,,2013-03-24 12:02:00,
2013-03-24 05:12:00,34.0,31.0,30.27,ENE,77,1.0,2.0,88,0.00,,,0.00,,2013-03-24 12:12:00,
2013-03-24 05:22:00,34.0,31.0,30.27,ENE,77,1.0,2.0,88,0.00,,,0.00,,2013-03-24 12:22:00,
2013-03-24 05:32:00,34.0,31.0,30.26,ENE,77,0.0,1.0,89,0.00,,,0.00,,2013-03-24 12:32:00,
2013-03-24 05:42:00,34.0,31.0,30.26,ENE,77,0.0,1.0,89,0.00,,,0.00,,2013-03-24 12:42:00,
2013-03-24 05:52:00,34.0,31.0,30.26,ENE,77,0.0,1.0,89,0.00,,,0.00,,2013-03-24 12:52:00,
2013-03-24 06:01:00,34.0,31.0,30.26,ENE,77,0.0,1.0,89,0.00,,,0.00,,2013-03-24 13:01:00,
2013-03-24 06:11:00,34.0,31.0,30.26,ENE,77,0.0,1.0,89,0.00,,,0.00,,2013-03-24 13:11:00,
2013-03-24 06:22:00,34.0,31.0,30.26,ENE,77,0.0,0.0,90,0.00,,,0.00,,2013-03-24 13:22:00,
2013-03-24 06:31:00,34.0,31.0,30.26,ENE,77,1.0,1.0,90,0.00,,,0.00,,2013-03-24 13:31:00,
2013-03-24 06:42:00,34.0,31.0,30.26,ENE,77,1.0,1.0,90,0.00,,,0.00,,2013-03-24 13:42:00,
2013-03-24 06:52:00,34.0,31.0,30.26,ENE,77,0.0,1.0,89,0.00,,,0.00,,2013-03-24 13:52:00,
2013-03-24 07:01:00,34.0,31.0,30.26,ENE,77,1.0,1.0,90,0.00,,,0.00,,2013-03-24 14:01:00,
2013-03-24 07:12:00,34.0,31.0,30.26,ENE,77,1.0,1.0,90,0.00,,,0.00,,2013-03-24 14:12:00,
2013-03-24 07:22:00,34.0,31.0,30.26,ENE,77,0.0,1.0,90,0.00,,,0.00,,2013-03-24 14:22:00,
2013-03-24 07:32:00,34.0,32.0,30.25,ENE,77,0.0,1.0,91,0.00,,,0.00,,2013-03-24 14:32:00,
2013-03-24 07:42:00,34.0,32.0,30.25,ENE,77,0.0,1.0,91,0.00,,,0.00,,2013-03-24 14:42:00,
2013-03-24 07:52:00,35.0,32.0,30.26,ENE,77,0.0,1.0,90,0.00,,,0.00,,2013-03-24 14:52:00,
2013-03-24 08:01:00,36.0,34.0,30.26,ENE,67,0.0,1.0,91,0.00,,,0.00,,2013-03-24 15:01:00,
2013-03-24 08:12:00,36.0,34.0,30.26,ENE,67,0.0,1.0,91,0.00,,,0.00,,2013-03-24 15:12:00,
2013-03-24 08:22:00,37.0,35.0,30.25,ENE,67,0.0,1.0,91,0.00,,,0.00,,2013-03-24 15:22:00,
2013-03-24 08:32:00,37.0,34.0,30.25,ENE,67,0.0,0.0,90,0.00,,,0.00,,2013-03-24 15:32:00,
2013-03-24 08:43:00,37.0,34.0,30.25,ENE,67,0.0,0.0,90,0.00,,,0.00,,2013-03-24 15:43:00,
2013-03-24 08:53:00,38.0,35.0,30.25,ENE,67,0.0,1.0,89,0.00,,,0.00,,2013-03-24 15:53:00,
2013-03-24 09:02:00,38.0,35.0,30.25,ENE,67,0.0,1.0,88,0.00,,,0.00,,2013-03-24 16:02:00,
2013-03-24 09:12:00,38.0,35.0,30.25,ENE,67,0.0,1.0,88,0.00,,,0.00,,2013-03-24 16:12:00,
2013-03-24 09:22:00,39.0,35.0,30.25,ENE,67,1.0,3.0,87,0.00,,,0.00,,2013-03-24 16:22:00,
2013-03-24 09:32:00,39.0,35.0,30.25,ENE,67,0.0,2.0,85,0.00,,,0.00,,2013-03-24 16:32:00,
2013-03-24 09:42:00,39.0,35.0,30.25,ENE,67,0.0,2.0,85,0.00,,,0.00,,2013-03-24 16:42:00,
2013-03-24 09:52:00,39.0,35.0,30.25,ENE,67,1.0,2.0,84,0.00,,,0.00,,2013-03-24 16:52:00,
2013-03-24 10:02:00,40.0,36.0,30.26,ENE,67,0.0,1.0,84,0.00,,,0.00,,2013-03-24 17:02:00,
2013-03-24 10:12:00,40.0,36.0,30.26,ENE,67,0.0,1.0,84,0.00,,,0.00,,2013-03-24 17:12:00,
2013-03-24 10:22:00,40.0,36.0,30.25,ENE,67,0.0,1.0,84,0.00,,,0.00,,2013-03-24 17:22:00,
2013-03-24 10:32:00,41.0,36.0,30.26,ENE,67,0.0,1.0,83,0.00,,,0.00,,2013-03-24 17:32:00,
2013-03-24 10:42:00,41.0,36.0,30.26,ENE,67,0.0,1.0,83,0.00,,,0.00,,2013-03-24 17:42:00,
2013-03-24 10:53:00,41.0,36.0,30.25,ENE,66,0.0,1.0,82,0.00,,,0.00,,2013-03-24 17:53:00,
2013-03-24 11:02:00,42.0,37.0,30.25,ENE,66,0.0,2.0,81,0.00,,,0.00,,2013-03-24 18:02:00,
2013-03-24 11:12:00,42.0,37.0,30.25,ENE,66,0.0,2.0,81,0.00,,,0.00,,2013-03-24 18:12:00,
2013-03-24 11:22:00,42.0,36.0,30.25,ENE,66,0.0,1.0,80,0.00,,,0.00,,2013-03-24 18:22:00,
2013-03-24 11:32:00,43.0,37.0,30.25,ENE,66,0.0,2.0,79,0.00,,,0.00,,2013-03-24 18:32:00,
2013-03-24 11:42:00,43.0,37.0,30.25,ENE,66,0.0,2.0,79,0.00,,,0.00,,2013-03-24 18:42:00,
2013-03-24 11:52:00,43.0,38.0,30.24,ENE,66,0.0,3.0,81,0.00,,,0.00,,2013-03-24 18:52:00,
2013-03-24 12:02:00,43.0,38.0,30.24,ENE,65,2.0,3.0,81,0.00,,,0.00,,2013-03-24 19:02:00,
2013-03-24 12:22:00,44.0,38.0,30.24,ENE,60,2.0,4.0,79,0.00,,,0.00,,2013-03-24 19:22:00,
2013-03-24 12:31:00,44.0,37.0,30.23,NE,53,3.0,4.0,77,0.00,,,0.00,,2013-03-24 19:31:00,
2013-03-24 12:53:00,44.0,37.0,30.23,ENE,57,1.0,4.0,76,0.00,,,0.00,,2013-03-24 19:53:00,
2013-03-24 13:02:00,44.0,37.0,30.23,NE,56,0.0,2.0,77,0.00,,,0.00,,2013-03-24 20:02:00,
2013-03-24 13:12:00,44.0,37.0,30.23,NE,56,0.0,2.0,77,0.00,,,0.00,,2013-03-24 20:12:00,
2013-03-24 13:22:00,45.0,38.0,30.22,NE,56,0.0,2.0,76,0.00,,,0.00,,2013-03-24 20:22:00,
2013-03-24 13:31:00,45.0,37.0,30.22,NE,56,0.0,2.0,74,0.00,,,0.00,,2013-03-24 20:31:00,
2013-03-24 13:42:00,45.0,37.0,30.22,NE,56,0.0,2.0,74,0.00,,,0.00,,2013-03-24 20:42:00,
2013-03-24 13:53:00,45.0,37.0,30.22,NE,56,1.0,3.0,73,0.00,,,0.00,,2013-03-24 20:53:00,
2013-03-24 14:02:00,46.0,37.0,30.22,NE,53,2.0,3.0,72,0.00,,,0.00,,2013-03-24 21:02:00,
2013-03-24 14:11:00,46.0,37.0,30.22,NE,53,2.0,3.0,72,0.00,,,0.00,,2013-03-24 21:11:00,
2013-03-24 14:22:00,47.0,37.0,30.21,NE,53,1.0,3.0,68,0.00,,,0.00,,2013-03-24 21:22:00,
2013-03-24 14:32:00,47.0,38.0,30.21,NE,53,1.0,2.0,70,0.00,,,0.00,,2013-03-24 21:32:00,
2013-03-24 14:43:00,47.0,38.0,30.21,NE,53,1.0,2.0,70,0.00,,,0.00,,2013-03-24 21:43:00,
2013-03-24 14:53:00,47.0,37.0,30.20,NE,53,1.0,4.0,69,0.00,,,0.00,,2013-03-24 21:53:00,
2013-03-24 15:02:00,47.0,38.0,30.20,NE,42,1.0,2.0,71,0.00,,,0.00,,2013-03-24 22:02:00,
2013-03-24 15:12:00,47.0,38.0,30.20,NE,42,1.0,2.0,71,0.00,,,0.00,,2013-03-24 22:12:00,
2013-03-24 15:22:00,47.0,37.0,30.19,NE,42,2.0,3.0,69,0.00,,,0.00,,2013-03-24 22:22:00,
2013-03-24 15:32:00,48.0,38.0,30.19,NE,42,0.0,2.0,69,0.00,,,0.00,,2013-03-24 22:32:00,
2013-03-24 15:42:00,48.0,38.0,30.19,NE,42,0.0,2.0,69,0.00,,,0.00,,2013-03-24 22:42:00,
2013-03-24 15:52:00,48.0,38.0,30.18,NE,42,1.0,3.0,67,0.00,,,0.00,,2013-03-24 22:52:00,
2013-03-24 16:02:00,48.0,38.0,30.17,NE,42,0.0,3.0,69,0.00,,,0.00,,2013-03-24 23:02:00,
2013-03-24 16:11:00,48.0,38.0,30.17,NE,42,0.0,3.0,69,0.00,,,0.00,,2013-03-24 23:11:00,
2013-03-24 16:22:00,49.0,39.0,30.16,NE,42,1.0,2.0,68,0.00,,,0.00,,2013-03-24 23:22:00,
2013-03-24 16:32:00,49.0,39.0,30.16,NE,42,0.0,2.0,69,0.00,,,0.00,,2013-03-24 23:32:00,
2013-03-24 16:52:00,49.0,39.0,30.15,NE,42,0.0,1.0,69,0.00,,,0.00,,2013-03-24 23:52:00,
2013-03-24 17:02:00,49.0,39.0,30.15,NE,42,0.0,2.0,68,0.00,,,0.00,,2013-03-25 00:02:00,
2013-03-24 17:22:00,49.0,39.0,30.14,NE,42,0.0,1.0,68,0.00,,,0.00,,2013-03-25 00:22:00,
2013-03-24 17:32:00,49.0,39.0,30.14,NE,42,0.0,0.0,68,0.00,,,0.00,,2013-03-25 00:32:00,
2013-03-24 17:52:00,50.0,41.0,30.14,NE,42,0.0,2.0,71,0.00,,,0.00,,2013-03-25 00:52:00,
2013-03-24 18:01:00,49.0,40.0,30.13,NE,42,0.0,1.0,71,0.00,,,0.00,,2013-03-25 01:01:00,
2013-03-24 18:22:00,49.0,40.0,30.13,NE,42,0.0,1.0,70,0.00,,,0.00,,2013-03-25 01:22:00,
2013-03-24 18:32:00,49.0,39.0,30.12,NE,42,0.0,0.0,67,0.00,,,0.00,,2013-03-25 01:32:00,
2013-03-24 18:52:00,48.0,37.0,30.12,NE,42,0.0,1.0,65,0.00,,,0.00,,2013-03-25 01:52:00,
2013-03-24 19:01:00,48.0,33.0,30.12,NE,42,0.0,1.0,56,0.00,,,0.00,,2013-03-25 02:01:00,
2013-03-24 19:11:00,48.0,33.0,30.12,NE,42,0.0,1.0,56,0.00,,,0.00,,2013-03-25 02:11:00,
2013-03-24 19:22:00,48.0,33.0,30.11,NE,42,0.0,1.0,56,0.00,,,0.00,,2013-03-25 02:22:00,
2013-03-24 19:32:00,48.0,34.0,30.11,NE,42,0.0,2.0,58,0.00,,,0.00,,2013-03-25 02:32:00,
2013-03-24 19:42:00,48.0,34.0,30.11,NE,42,0.0,2.0,58,0.00,,,0.00,,2013-03-25 02:42:00,
2013-03-24 19:52:00,47.0,33.0,30.11,NE,42,1.0,2.0,59,0.00,,,0.00,,2013-03-25 02:52:00,
2013-03-24 20:01:00,45.0,33.0,30.11,NE,42,0.0,2.0,63,0.00,,,0.00,,2013-03-25 03:01:00,
2013-03-24 20:12:00,45.0,33.0,30.11,NE,42,0.0,2.0,63,0.00,,,0.00,,2013-03-25 03:12:00,
2013-03-24 20:22:00,45.0,34.0,30.11,NE,42,1.0,2.0,65,0.00,,,0.00,,2013-03-25 03:22:00,
2013-03-24 20:32:00,45.0,33.0,30.11,NE,42,0.0,2.0,63,0.00,,,0.00,,2013-03-25 03:32:00,
2013-03-24 20:42:00,45.0,33.0,30.11,NE,42,0.0,2.0,63,0.00,,,0.00,,2013-03-25 03:42:00,
2013-03-24 20:53:00,45.0,32.0,30.11,NE,42,0.0,0.0,60,0.00,,,0.00,,2013-03-25 03:53:00,
2013-03-24 21:02:00,45.0,33.0,30.11,NE,42,1.0,2.0,62,0.00,,,0.00,,2013-03-25 04:02:00,
2013-03-24 21:12:00,45.0,33.0,30.11,NE,42,1.0,2.0,62,0.00,,,0.00,,2013-03-25 04:12:00,
2013-03-24 21:22:00,45.0,33.0,30.11,NE,42,0.0,1.0,62,0.00,,,0.00,,2013-03-25 04:22:00,
2013-03-24 21:32:00,44.0,33.0,30.11,NE,42,0.0,1.0,64,0.00,,,0.00,,2013-03-25 04:32:00,
2013-03-24 21:42:00,44.0,33.0,30.11,NE,42,0.0,1.0,64,0.00,,,0.00,,2013-03-25 04:42:00,
2013-03-24 21:52:00,43.0,33.0,30.11,NE,42,0.0,1.0,67,0.00,,,0.00,,2013-03-25 04:52:00,
2013-03-24 22:02:00,43.0,34.0,30.11,NE,42,1.0,1.0,71,0.00,,,0.00,,2013-03-25 05:02:00,
2013-03-24 22:12:00,43.0,34.0,30.11,NE,42,1.0,1.0,71,0.00,,,0.00,,2013-03-25 05:12:00,
2013-03-24 22:22:00,43.0,34.0,30.11,NE,42,0.0,1.0,71,0.00,,,0.00,,2013-03-25 05:22:00,
2013-03-24 22:32:00,43.0,34.0,30.11,NE,42,1.0,1.0,70,0.00,,,0.00,,2013-03-25 05:32:00,
2013-03-24 22:42:00,43.0,34.0,30.11,NE,42,1.0,1.0,70,0.00,,,0.00,,2013-03-25 05:42:00,
2013-03-24 22:52:00,43.0,34.0,30.11,NE,42,0.0,1.0,69,0.00,,,0.00,,2013-03-25 05:52:00,
2013-03-24 23:01:00,44.0,35.0,30.11,NE,42,1.0,3.0,70,0.00,,,0.00,,2013-03-25 06:01:00,
2013-03-24 23:11:00,44.0,35.0,30.11,NE,42,1.0,3.0,70,0.00,,,0.00,,2013-03-25 06:11:00,
2013-03-24 23:22:00,44.0,34.0,30.11,NE,42,1.0,2.0,69,0.00,,,0.00,,2013-03-25 06:22:00,
2013-03-24 23:32:00,44.0,33.0,30.11,NE,42,0.0,1.0,66,0.00,,,0.00,,2013-03-25 06:32:00,
2013-03-24 23:42:00,44.0,33.0,30.11,NE,42,0.0,1.0,66,0.00,,,0.00,,2013-03-25 06:42:00,
2013-03-24 23:52:00,45.0,34.0,30.11,NE,42,1.0,2.0,66,0.00,,,0.00,,2013-03-25 06:52:00,